Location: Unspecified
(0.0000°N, 0.0000°E)
Time: 06:16:30
(UTC+01:00)

Cosmos 2237 Rocket - Visible Passes

Search period start: 27 March 2015 00:00
Search period end: 06 April 2015 01:00
Orbit: 833 x 852 km, 71.0° (Epoch: 26 March)

Date Brightness Start Highest point End Pass type
(mag) Time Alt. Az. Time Alt. Az. Time Alt. Az.
03 Apr 4.2 21:07:58 10° NE 21:08:25 11° NE 21:08:25 11° NE visible
03 Apr 4.7 22:49:26 10° NW 22:50:20 14° NW 22:50:20 14° NW visible
04 Apr 3.9 20:53:30 10° NE 20:55:18 13° ENE 20:55:18 13° ENE visible
04 Apr 4.0 22:34:35 10° NW 22:37:13 26° NW 22:37:13 26° NW visible
05 Apr 3.9 20:39:07 10° NE 20:41:03 12° ENE 20:42:21 12° E visible
05 Apr 3.3 22:19:44 10° NW 22:24:17 41° W 22:24:17 41° W visible
